Retour au catalogue

CZ-6A DEB

ActifPO
NORAD 60655·DEBRIS·🇨🇳 China

Lancé Aug 6, 2024 depuis Taiyuan Satellite Launch Center

Loading…

Prochains Passages (prochaines 24 heures)

TLE

FraisSource: Space-Track

Époque: Sep 14, 2026, 11:19 UTC

1 60655U 24140BG  26257.47209218  .00000140  00000-0  57923-4 0  9993
2 60655  88.9946 264.4338 0037646 232.5724 127.2039 14.20720840108864

Suivez CZ-6A DEB en temps réel avec AllMySat

Download on the App Store